Regional Weather Roundup
Issued by NWS

Home | Current Version | Previous Version | Text Only | Print | Product List | Glossary On
Versions: 1 2 3 4 5 6 7 8 9 10 11 12 13 14 15 16 17 18 19 20 21 22 23 24 25 26 27 28 29 30 31 32 33 34 35 36 37 38 39 40 41 42 43 44 45 46 47 48 49 50
000
ASUS43 KLSX 170557
RWRMO

WEATHER SUMMARY FOR MISSOURI
NATIONAL WEATHER SERVICE SPRINGFIELD MO
1200 AM CST TUE JAN 17 2017

NOTE: "FAIR" INDICATES FEW OR NO CLOUDS BELOW 12,000 FEET WITH NO
       SIGNIFICANT WEATHER AND/OR OBSTRUCTIONS TO VISIBILITY.
       CURRENT SKY AND/OR WEATHER CONDITIONS ARE NOT AVAILABLE FOR
       CHILLICOTHE AND FARMINGTON.

MOZ001>031-035>038-043-044-053-054-170700-
...NORTHERN AND WESTERN MISSOURI...

CITY           SKY/WX    TMP DP  RH WIND       PRES   REMARKS
KANSAS CTY INT DRZL/FOG  35  33  92 NW14      29.94S VSB 1   WCI  26
6HR MIN TEMP:  35; 6HR MAX TEMP:  43; 6HR PCP:  0.01;

LEE`S SUMMIT   CLOUDY    38  50 100 W7        29.94R
6HR MIN TEMP:  38; 6HR MAX TEMP:  44; 6HR PCP: TRACE;

ST JOSEPH      CLOUDY    34  34 100 NW10      29.96R WCI  26
6HR MIN TEMP:  34; 6HR MAX TEMP:  42; 6HR PCP:  0.01;

CHILLICOTHE      N/A     41  40  96 SW6       29.91S
6HR MIN TEMP:  41; 6HR MAX TEMP:  46; 6HR PCP:  0.10;


$$
MOZ066>068-077>081-088>096-101>105-170700-
...SOUTHWEST MISSOURI...

CITY           SKY/WX    TMP DP  RH WIND       PRES   REMARKS
SPRINGFIELD    CLOUDY    42  34  73 W16G24    29.98R
6HR MIN TEMP:  42; 6HR MAX TEMP:  56;

JOPLIN         CLOUDY    41  37  86 MISG      30.02R
6HR MIN TEMP:  41; 6HR MAX TEMP:  46;


$$
MOZ032>034-039>042-045>050-055>058-069>072-170700-
...CENTRAL MISSOURI...

CITY           SKY/WX    TMP DP  RH WIND       PRES   REMARKS
COLUMBIA       NOT AVBL
JEFFERSON CITY CLOUDY    44  37  76 W13       29.95R
6HR MIN TEMP:  44; 6HR MAX TEMP:  57; 6HR PCP: TRACE;

ROLLA          LGT RAIN  45  40  82 SW25      29.92R
6HR MIN TEMP:  45; 6HR MAX TEMP:  56; 6HR PCP: TRACE;

SEDALIA        CLOUDY    42  38  85 W10G20    29.96R
6HR MIN TEMP:  42; 6HR MAX TEMP:  56; 6HR PCP:  0.04;

WARRENSBURG    CLOUDY    39  37  93 SW13      29.95S

$$
MOZ051-052-059>065-170700-
...EAST CENTRAL MISSOURI...

CITY           SKY/WX    TMP DP  RH WIND       PRES   REMARKS
ST LOUIS INTL  LGT RAIN  55  51  86 W15G21    29.86R
6HR MIN TEMP:  54; 6HR MAX TEMP:  59; 6HR PCP:  0.02;


$$
MOZ072>076-082>087-097>100-106>115-170700-
...SOUTH CENTRAL AND SOUTHEAST MISSOURI...

CITY           SKY/WX    TMP DP  RH WIND       PRES   REMARKS
CAPE GIRARDEAU MOCLDY    60  58  92 S15       29.90F
6HR MIN TEMP:  59; 6HR MAX TEMP:  62; 6HR PCP: TRACE;

POPLAR BLUFF   CLOUDY    60  59  96 SW10      29.92S
6HR MIN TEMP:  59; 6HR MAX TEMP:  63; 6HR PCP:  0.02;

WEST PLAINS    CLEAR     46  42  86 W12       29.97R
6HR MIN TEMP:  46; 6HR MAX TEMP:  60;


$$


USA.gov is the U.S. government's official web portal to all federal, state and local government web resources and services.